When you browse on this site, cookies collect data to enhance your experience and personalize the content and advertising you see.
Visit our Privacy Policy to learn more. By continuing to use the site, you agree to this use of cookies and data.

Meteo pe oră la Dzhusinsk

Astăzi, 19 Septembrie, Sâmbătă

Timp Temperatura Precipitaţii Vânt Presiune Umiditate
00:00 +11°C° 0 mm 3 m/s 733 mmHg 52%
01:00 +11°C° 0 mm 3 m/s 733 mmHg 52%
02:00 +10°C° 0 mm 3 m/s 733 mmHg 53%
03:00 +10°C° 0 mm 3 m/s 733 mmHg 53%
04:00 +9°C° 0 mm 3 m/s 733 mmHg 52%
05:00 +10°C° 0 mm 4 m/s 732 mmHg 53%
06:00 +10°C° 0 mm 4 m/s 732 mmHg 53%
07:00 +10°C° 0 mm 4 m/s 731 mmHg 54%
08:00 +11°C° 0 mm 6 m/s 731 mmHg 48%
09:00 +14°C° 0 mm 7 m/s 731 mmHg 42%
10:00 +16°C° 0 mm 8 m/s 731 mmHg 37%
11:00 +16°C° 0 mm 8 m/s 730 mmHg 36%
12:00 +17°C° 0 mm 8 m/s 730 mmHg 35%
13:00 +17°C° 0 mm 9 m/s 729 mmHg 33%
14:00 +17°C° 0 mm 9 m/s 728 mmHg 35%
15:00 +17°C° 0 mm 8 m/s 728 mmHg 37%
16:00 +17°C° 0 mm 8 m/s 727 mmHg 38%
17:00 +16°C° 0 mm 7 m/s 726 mmHg 39%
18:00 +16°C° 0 mm 7 m/s 725 mmHg 40%
19:00 +15°C° 0 mm 6 m/s 725 mmHg 41%
20:00 +15°C° 0 mm 7 m/s 724 mmHg 39%
21:00 +15°C° 0 mm 7 m/s 723 mmHg 37%
22:00 +15°C° 0 mm 8 m/s 723 mmHg 35%
23:00 +13°C° 0 mm 8 m/s 722 mmHg 40%

Mâine, 20 Septembrie, Duminică

Timp Temperatura Precipitaţii Vânt Presiune Umiditate
00:00 +12°C° 0 mm 8 m/s 721 mmHg 46%
01:00 +11°C° 0 mm 8 m/s 720 mmHg 52%
02:00 +11°C° 0 mm 8 m/s 719 mmHg 47%
03:00 +12°C° 0 mm 8 m/s 719 mmHg 42%
04:00 +12°C° 0 mm 9 m/s 718 mmHg 37%
05:00 +11°C° 0 mm 10 m/s 717 mmHg 46%
06:00 +9°C° 0 mm 10 m/s 716 mmHg 56%
07:00 +8°C° 0 mm 11 m/s 715 mmHg 65%
08:00 +8°C° 0.5 mm 11 m/s 715 mmHg 64%
09:00 +9°C° 0.5 mm 12 m/s 715 mmHg 63%
10:00 +10°C° 0.5 mm 12 m/s 715 mmHg 62%
11:00 +9°C° 0.1 mm 13 m/s 716 mmHg 65%
12:00 +9°C° 0.1 mm 13 m/s 716 mmHg 68%
13:00 +8°C° 0.1 mm 14 m/s 717 mmHg 71%
14:00 +8°C° 0 mm 13 m/s 718 mmHg 70%
15:00 +8°C° 0 mm 12 m/s 719 mmHg 69%
16:00 +7°C° 0 mm 11 m/s 719 mmHg 68%
17:00 +7°C° 0 mm 9 m/s 720 mmHg 68%
18:00 +6°C° 0 mm 8 m/s 720 mmHg 67%
19:00 +5°C° 0 mm 7 m/s 721 mmHg 67%
20:00 +5°C° 0 mm 7 m/s 721 mmHg 69%
21:00 +4°C° 0 mm 6 m/s 722 mmHg 72%
22:00 +4°C° 0 mm 6 m/s 722 mmHg 74%
23:00 +5°C° 0 mm 5 m/s 722 mmHg 75%

Poimâine, 21 Septembrie, Luni

Timp Temperatura Precipitaţii Vânt Presiune Umiditate
00:00 +5°C° 0 mm 5 m/s 722 mmHg 77%
01:00 +5°C° 0 mm 5 m/s 722 mmHg 78%
02:00 +4°C° 0 mm 4 m/s 722 mmHg 82%
03:00 +4°C° 0 mm 4 m/s 722 mmHg 86%
04:00 +3°C° 0 mm 3 m/s 722 mmHg 91%
05:00 +3°C° 0 mm 3 m/s 722 mmHg 89%
06:00 +4°C° 0 mm 4 m/s 723 mmHg 88%
07:00 +4°C° 0 mm 4 m/s 723 mmHg 87%
08:00 +5°C° 0 mm 4 m/s 724 mmHg 79%
09:00 +7°C° 0 mm 5 m/s 724 mmHg 70%
10:00 +8°C° 0 mm 6 m/s 725 mmHg 62%
11:00 +8°C° 0.1 mm 6 m/s 725 mmHg 60%
12:00 +8°C° 0.1 mm 7 m/s 726 mmHg 57%
13:00 +9°C° 0.1 mm 8 m/s 726 mmHg 54%
14:00 +9°C° 0 mm 8 m/s 726 mmHg 53%
15:00 +9°C° 0 mm 8 m/s 727 mmHg 52%
16:00 +9°C° 0 mm 8 m/s 727 mmHg 50%
17:00 +8°C° 0 mm 7 m/s 727 mmHg 55%
18:00 +6°C° 0 mm 7 m/s 728 mmHg 59%
19:00 +5°C° 0 mm 7 m/s 728 mmHg 64%
20:00 +4°C° 0 mm 6 m/s 728 mmHg 67%
21:00 +4°C° 0 mm 6 m/s 729 mmHg 71%
22:00 +5°C° 0 mm 5 m/s 729 mmHg 75%
23:00 +5°C° 0 mm 5 m/s 729 mmHg 76%

22 Septembrie, Marţi

Timp Temperatura Precipitaţii Vânt Presiune Umiditate
00:00 +4°C° 0 mm 6 m/s 729 mmHg 77%
01:00 +4°C° 0 mm 6 m/s 729 mmHg 79%
02:00 +4°C° 0.1 mm 6 m/s 729 mmHg 77%
03:00 +4°C° 0.1 mm 6 m/s 729 mmHg 76%
04:00 +4°C° 0.1 mm 7 m/s 729 mmHg 75%
05:00 +4°C° 0.1 mm 7 m/s 728 mmHg 75%
06:00 +5°C° 0.1 mm 8 m/s 728 mmHg 76%
07:00 +5°C° 0.1 mm 8 m/s 728 mmHg 76%
08:00 +5°C° 0.1 mm 8 m/s 728 mmHg 75%
09:00 +6°C° 0.1 mm 8 m/s 728 mmHg 74%
10:00 +7°C° 0.1 mm 9 m/s 728 mmHg 72%
11:00 +8°C° 0.1 mm 9 m/s 729 mmHg 65%
12:00 +10°C° 0.1 mm 9 m/s 729 mmHg 58%
13:00 +11°C° 0.1 mm 9 m/s 730 mmHg 50%
14:00 +11°C° 0 mm 8 m/s 730 mmHg 50%
15:00 +10°C° 0 mm 8 m/s 730 mmHg 50%
16:00 +10°C° 0 mm 7 m/s 730 mmHg 50%
17:00 +9°C° 0 mm 6 m/s 731 mmHg 56%
18:00 +8°C° 0 mm 5 m/s 731 mmHg 61%
19:00 +7°C° 0 mm 4 m/s 732 mmHg 66%
20:00 +7°C° 0 mm 3 m/s 732 mmHg 69%
21:00 +7°C° 0 mm 3 m/s 732 mmHg 72%
22:00 +6°C° 0 mm 2 m/s 732 mmHg 74%
23:00 +5°C° 0 mm 3 m/s 732 mmHg 75%

23 Septembrie, Miercuri

Timp Temperatura Precipitaţii Vânt Presiune Umiditate
00:00 +5°C° 0 mm 3 m/s 732 mmHg 76%
01:00 +5°C° 0 mm 4 m/s 732 mmHg 78%
02:00 +5°C° 0 mm 4 m/s 731 mmHg 79%
03:00 +5°C° 0 mm 5 m/s 731 mmHg 80%
04:00 +5°C° 0 mm 6 m/s 731 mmHg 81%
05:00 +5°C° 0 mm 6 m/s 731 mmHg 81%
06:00 +6°C° 0 mm 7 m/s 730 mmHg 81%
07:00 +8°C° 0 mm 7 m/s 730 mmHg 81%
08:00 +10°C° 0 mm 8 m/s 730 mmHg 74%
09:00 +11°C° 0 mm 9 m/s 730 mmHg 66%
10:00 +13°C° 0 mm 10 m/s 729 mmHg 59%
11:00 +14°C° 0 mm 10 m/s 729 mmHg 56%
12:00 +16°C° 0 mm 10 m/s 729 mmHg 53%
13:00 +17°C° 0 mm 10 m/s 729 mmHg 50%
14:00 +17°C° 0 mm 10 m/s 729 mmHg 51%
15:00 +16°C° 0 mm 9 m/s 729 mmHg 53%
16:00 +16°C° 0 mm 9 m/s 729 mmHg 54%
17:00 +15°C° 0 mm 8 m/s 729 mmHg 59%
18:00 +14°C° 0 mm 7 m/s 729 mmHg 64%
19:00 +13°C° 0 mm 6 m/s 729 mmHg 69%
20:00 +13°C° 0 mm 5 m/s 729 mmHg 73%
21:00 +12°C° 0 mm 5 m/s 730 mmHg 76%
22:00 +12°C° 0 mm 5 m/s 730 mmHg 79%
23:00 +11°C° 0 mm 4 m/s 730 mmHg 83%

24 Septembrie, Joi

Timp Temperatura Precipitaţii Vânt Presiune Umiditate
00:00 +10°C° 0 mm 4 m/s 730 mmHg 86%
01:00 +10°C° 0 mm 3 m/s 731 mmHg 90%
02:00 +10°C° 0 mm 3 m/s 731 mmHg 91%
03:00 +9°C° 0 mm 3 m/s 731 mmHg 92%
04:00 +9°C° 0 mm 3 m/s 732 mmHg 93%
05:00 +9°C° 0 mm 3 m/s 732 mmHg 93%
06:00 +9°C° 0 mm 3 m/s 733 mmHg 92%
07:00 +9°C° 0 mm 3 m/s 733 mmHg 91%
08:00 +11°C° 0 mm 3 m/s 733 mmHg 81%
09:00 +13°C° 0 mm 3 m/s 734 mmHg 71%
10:00 +14°C° 0 mm 3 m/s 734 mmHg 61%
11:00 +17°C° 0 mm 3 m/s 734 mmHg 55%
12:00 +18°C° 0 mm 4 m/s 734 mmHg 49%
13:00 +19°C° 0 mm 4 m/s 735 mmHg 43%
14:00 +19°C° 0 mm 4 m/s 735 mmHg 42%
15:00 +19°C° 0 mm 3 m/s 735 mmHg 42%
16:00 +19°C° 0 mm 3 m/s 735 mmHg 41%
17:00 +18°C° 0 mm 2 m/s 736 mmHg 46%
18:00 +17°C° 0 mm 2 m/s 736 mmHg 51%
19:00 +15°C° 0 mm 1 m/s 736 mmHg 55%
20:00 +15°C° 0 mm 1 m/s 736 mmHg 58%
21:00 +14°C° 0 mm 2 m/s 737 mmHg 60%
22:00 +14°C° 0 mm 2 m/s 737 mmHg 62%
23:00 +13°C° 0 mm 2 m/s 737 mmHg 64%
Arată mai mult